Weather History for KBRD - November, 2013

Change the Weather History Date:

Sunday, November 3, 2013

  Actual Average Record
Temperature  
Mean Temperature 41 °F -  
Max Temperature 53 °F 43 °F 72 °F (1965)
Min Temperature 30 °F 24 °F 3 °F (1991)
Degree Days  
Heating Degree Days 24    
Moisture  
Dew Point 31 °F    
Average Humidity 62    
Maximum Humidity 89    
Minimum Humidity 45    
Precipitation  
Precipitation 0.00 in - - ()
Sea Level Pressure  
Sea Level Pressure 29.97 in    
Wind  
Wind Speed 7 mph (SE)    
Max Wind Speed 21 mph    
Max Gust Speed 38 mph    
Visibility 10 miles    
Events      
Averages and records for this station are not official NWS values.
T = Trace of Precipitation, MM = Missing Value Source: NWS Daily Summary

Daily Weather History Graph

Daily Weather History Graph

Search for Another Location

Airport or City:

Trip Planner

Search our weather history database for the weather conditions in past years. The results will help you decide how hot, cold, wet, or windy it might be!

Date:

Astronomy

Nov. 03, 2013 Rise Set
Actual Time 7:01 AM CST 4:58 PM CST
Civil Twilight 6:29 AM CST 5:29 PM CST
Nautical Twilight 5:53 AM CST 6:05 PM CST
Astronomical Twilight 5:18 AM CST 6:40 PM CST
Moon 7:06 AM CST 5:11 PM CST
Length of Visible Light 11h 00m
Length of Day
9h 57m
New Moon, 0% of the Moon is Illuminated
Nov 3
New Moon
Nov 9
First Quarter
Nov 17
Full
Nov 25
Last Quarter
Dec 2
New

Hourly Weather History & Observations

Time (CST) Temp. Windchill Dew Point Humidity Pressure Visibility Wind Dir Wind Speed Gust Speed Precip Events Conditions
12:53 AM 32.0 °F - 28.0 °F 85% 30.09 in 10.0 mi Calm Calm - N/A   Clear
1:53 AM 30.9 °F - 28.0 °F 89% 30.10 in 9.0 mi Calm Calm - N/A   Clear
1:53 AM 33.1 °F 28.7 °F 28.9 °F 85% 30.09 in 9.0 mi SE 4.6 mph - N/A   Clear
2:53 AM 37.0 °F 33.3 °F 30.9 °F 79% 30.09 in 10.0 mi ESE 4.6 mph - N/A   Clear
3:53 AM 37.9 °F 34.4 °F 30.9 °F 76% 30.07 in 9.0 mi SE 4.6 mph - N/A   Clear
4:53 AM 37.9 °F 33.5 °F 30.9 °F 76% 30.06 in 9.0 mi SE 5.8 mph - N/A   Clear
5:53 AM 39.0 °F 34.0 °F 30.9 °F 73% 30.05 in 10.0 mi ESE 6.9 mph - N/A   Clear
6:53 AM 37.9 °F 32.1 °F 30.0 °F 73% 30.04 in 10.0 mi SE 8.1 mph - N/A   Clear
7:53 AM 39.9 °F 32.9 °F 30.0 °F 68% 30.04 in 10.0 mi SE 11.5 mph 18.4 mph N/A   Clear
8:53 AM 42.1 °F 35.2 °F 30.9 °F 65% 30.03 in 10.0 mi SSE 12.7 mph 18.4 mph N/A   Clear
9:53 AM 44.1 °F 39.0 °F 30.9 °F 60% 30.01 in 10.0 mi SSE 9.2 mph 20.7 mph N/A   Mostly Cloudy
10:53 AM 46.9 °F - 32.0 °F 56% 29.99 in 10.0 mi SSE 10.4 mph - N/A   Overcast
11:53 AM 50.0 °F - 32.0 °F 50% 29.96 in 10.0 mi SSE 20.7 mph 28.8 mph N/A   Mostly Cloudy
12:53 PM 52.0 °F - 30.9 °F 45% 29.91 in 10.0 mi SSE 15.0 mph 38.0 mph N/A   Clear
1:53 PM 52.0 °F - 30.9 °F 45% 29.88 in 10.0 mi SE 20.7 mph 34.5 mph N/A   Clear
2:53 PM 52.0 °F - 32.0 °F 47% 29.87 in 10.0 mi SE 15.0 mph 26.5 mph N/A   Clear
3:53 PM 51.1 °F - 32.0 °F 48% 29.87 in 10.0 mi SSE 16.1 mph 27.6 mph N/A   Clear
4:53 PM 50.0 °F - 32.0 °F 50% 29.86 in 10.0 mi SE 10.4 mph 21.9 mph N/A   Clear
5:53 PM 48.9 °F - 30.9 °F 50% 29.86 in 10.0 mi SE 10.4 mph - N/A   Clear
6:53 PM 48.9 °F - 30.9 °F 50% 29.87 in 10.0 mi SE 12.7 mph 21.9 mph N/A   Clear
7:53 PM 48.0 °F - 30.9 °F 52% 29.87 in 10.0 mi SSE 13.8 mph 20.7 mph N/A   Partly Cloudy
8:53 PM 48.0 °F - 30.9 °F 52% 29.86 in 10.0 mi SSE 15.0 mph 24.2 mph N/A   Overcast
9:53 PM 48.0 °F - 30.9 °F 52% 29.87 in 10.0 mi SSE 10.4 mph 24.2 mph N/A   Overcast
10:53 PM 48.0 °F - 32.0 °F 54% 29.86 in 10.0 mi SSE 12.7 mph 21.9 mph N/A   Overcast